timestamp,wind_dir_avg,wind_spd_avg,wind_spd_max_dir,wind_spd_gust,battery_voltage,lat,long
2020-12-24 00:04:01+00:00,333.0,8.79,333.0,9.94,12.49,47.59359,-54.27349
2020-12-24 00:14:01+00:00,324.0,8.32,307.0,9.75,12.49,47.59359,-54.27349
2020-12-24 00:24:01+00:00,317.0,9.41,303.0,11.13,12.49,47.59359,-54.27349
2020-12-24 00:34:01+00:00,315.0,7.28,309.0,8.39,12.49,47.59359,-54.27349
2020-12-24 00:44:01+00:00,292.0,8.67,294.0,10.06,12.49,47.59359,-54.27349
2020-12-24 00:54:01+00:00,300.0,8.66,304.0,10.27,12.49,47.59359,-54.27349
2020-12-24 01:04:01+00:00,314.0,5.53,320.0,6.29,12.49,47.59359,-54.27349
2020-12-24 01:14:01+00:00,307.0,5.23,308.0,6.18,12.41,47.59359,-54.27349
2020-12-24 01:24:01+00:00,340.0,6.37,339.0,7.58,12.41,47.59359,-54.27349
2020-12-24 01:34:01+00:00,336.0,8.52,340.0,9.69,12.41,47.59359,-54.27349
2020-12-24 01:44:01+00:00,333.0,9.03,325.0,10.69,12.41,47.59359,-54.27349
2020-12-24 01:54:01+00:00,337.0,8.09,338.0,9.16,12.41,47.59359,-54.27349
2020-12-24 02:04:01+00:00,332.0,7.61,331.0,8.83,12.41,47.59359,-54.27349
2020-12-24 02:14:01+00:00,338.0,6.28,349.0,7.1,12.41,47.59359,-54.27349
2020-12-24 02:24:01+00:00,325.0,7.67,320.0,9.2,12.41,47.59359,-54.27349
2020-12-24 02:34:01+00:00,311.0,6.42,308.0,7.89,12.41,47.59359,-54.27349
2020-12-24 02:44:01+00:00,294.0,5.16,303.0,7.62,12.41,47.59359,-54.27349
2020-12-24 02:54:01+00:00,315.0,5.33,310.0,6.11,12.41,47.59359,-54.27349
2020-12-24 03:04:01+00:00,333.0,5.99,339.0,7.1,12.41,47.59359,-54.27349
2020-12-24 03:14:01+00:00,337.0,8.32,339.0,9.78,12.41,47.59359,-54.27349
2020-12-24 03:24:01+00:00,344.0,7.82,342.0,9.58,12.41,47.59359,-54.27349
2020-12-24 03:34:01+00:00,322.0,6.45,314.0,9.8,12.41,47.59359,-54.27349
2020-12-24 03:44:01+00:00,315.0,4.61,305.0,5.89,12.41,47.59359,-54.27349
2020-12-24 03:54:01+00:00,323.0,7.29,319.0,8.16,12.41,47.59359,-54.27349
2020-12-24 04:04:01+00:00,329.0,7.09,321.0,9.02,12.41,47.59359,-54.27349
2020-12-24 04:14:01+00:00,324.0,8.73,316.0,10.69,12.33,47.59359,-54.27349
2020-12-24 04:24:01+00:00,334.0,8.28,326.0,10.27,12.33,47.59359,-54.27349
2020-12-24 04:34:01+00:00,333.0,8.9,337.0,10.09,12.33,47.59359,-54.27349
2020-12-24 04:44:01+00:00,328.0,7.62,331.0,8.46,12.33,47.59359,-54.27349
2020-12-24 04:54:01+00:00,330.0,8.08,330.0,9.77,12.33,47.59359,-54.27349
2020-12-24 05:04:01+00:00,326.0,6.2,327.0,7.7,12.33,47.59359,-54.27349
2020-12-24 05:14:01+00:00,310.0,5.8,313.0,6.99,12.25,47.59359,-54.27349
2020-12-24 05:24:01+00:00,319.0,6.34,320.0,8.34,12.25,47.59359,-54.27349
2020-12-24 05:34:01+00:00,315.0,6.66,303.0,8.19,12.25,47.59359,-54.27349
2020-12-24 05:44:01+00:00,312.0,6.19,307.0,7.64,12.25,47.59359,-54.27349
2020-12-24 05:54:01+00:00,306.0,6.37,298.0,7.29,12.25,47.59359,-54.27349
2020-12-24 06:04:01+00:00,322.0,5.72,328.0,7.36,12.25,47.59359,-54.27349
2020-12-24 06:14:01+00:00,324.0,6.6,328.0,8.5,12.25,47.59359,-54.27349
2020-12-24 06:24:01+00:00,318.0,5.61,322.0,7.77,12.25,47.59359,-54.27349
2020-12-24 06:34:01+00:00,317.0,7.47,321.0,8.87,12.25,47.59359,-54.27349
2020-12-24 06:44:01+00:00,323.0,8.3,323.0,10.13,12.25,47.59359,-54.27349
2020-12-24 06:54:01+00:00,308.0,5.75,316.0,7.26,12.25,47.59359,-54.27349
2020-12-24 07:04:01+00:00,313.0,7.86,309.0,8.89,12.25,47.59359,-54.27349
2020-12-24 07:14:01+00:00,322.0,6.14,324.0,7.52,12.17,47.59359,-54.27349
2020-12-24 07:24:01+00:00,324.0,8.49,329.0,9.57,12.17,47.59359,-54.27349
2020-12-24 07:34:01+00:00,333.0,6.66,342.0,7.98,12.17,47.59359,-54.27349
2020-12-24 07:44:01+00:00,334.0,7.24,334.0,7.84,12.17,47.59359,-54.27349
2020-12-24 07:54:01+00:00,333.0,6.85,337.0,7.84,12.17,47.59359,-54.27349
2020-12-24 08:04:01+00:00,344.0,4.58,350.0,6.13,12.17,47.59359,-54.27349
2020-12-24 08:14:01+00:00,322.0,4.85,324.0,5.48,12.17,47.59359,-54.27349
2020-12-24 08:24:01+00:00,322.0,5.08,323.0,6.53,12.17,47.59359,-54.27349
2020-12-24 08:34:01+00:00,333.0,6.2,339.0,7.7,12.17,47.59359,-54.27349
2020-12-24 08:44:01+00:00,319.0,5.17,311.0,6.16,12.17,47.59359,-54.27349
2020-12-24 08:54:01+00:00,326.0,5.61,337.0,6.75,12.17,47.59359,-54.27349
2020-12-24 09:04:01+00:00,339.0,4.84,327.0,5.8,12.17,47.59359,-54.27349
2020-12-24 09:14:01+00:00,331.0,6.15,333.0,7.07,12.09,47.59359,-54.27349
2020-12-24 09:24:01+00:00,324.0,5.24,322.0,5.99,12.09,47.59359,-54.27349
2020-12-24 09:34:01+00:00,320.0,5.32,320.0,6.23,12.09,47.59359,-54.27349
2020-12-24 09:44:01+00:00,329.0,6.51,325.0,7.38,12.09,47.59359,-54.27349
2020-12-24 09:54:01+00:00,318.0,4.53,320.0,5.4,12.09,47.59359,-54.27349
2020-12-24 10:04:01+00:00,326.0,5.13,324.0,6.22,12.09,47.59359,-54.27349
2020-12-24 10:14:01+00:00,314.0,5.52,325.0,6.93,12.17,47.59359,-54.27349
2020-12-24 10:24:01+00:00,319.0,5.28,315.0,6.49,12.17,47.59359,-54.27349
2020-12-24 10:34:01+00:00,319.0,6.39,314.0,7.92,12.17,47.59359,-54.27349
2020-12-24 10:44:01+00:00,323.0,5.59,326.0,7.34,12.17,47.59359,-54.27349
2020-12-24 10:54:01+00:00,319.0,5.23,325.0,6.05,12.17,47.59359,-54.27349
2020-12-24 11:04:01+00:00,319.0,6.49,311.0,7.14,12.17,47.59359,-54.27349
2020-12-24 11:14:01+00:00,305.0,5.91,303.0,7.11,12.17,47.59359,-54.27349
2020-12-24 11:24:01+00:00,297.0,6.05,294.0,7.37,12.17,47.59359,-54.27349
2020-12-24 11:34:01+00:00,306.0,6.51,296.0,7.4,12.17,47.59359,-54.27349
2020-12-24 11:44:01+00:00,308.0,5.87,314.0,6.62,12.17,47.59359,-54.27349
2020-12-24 11:54:01+00:00,302.0,5.21,292.0,6.23,12.17,47.59359,-54.27349
2020-12-24 12:04:01+00:00,298.0,3.81,303.0,4.79,12.17,47.59359,-54.27349
2020-12-24 12:14:01+00:00,298.0,5.08,295.0,5.45,13.92,47.59359,-54.27349
2020-12-24 12:24:01+00:00,306.0,5.83,303.0,6.86,13.92,47.59359,-54.27349
2020-12-24 12:34:01+00:00,296.0,6.59,299.0,8.14,13.92,47.59359,-54.27349
2020-12-24 12:44:01+00:00,303.0,6.65,301.0,7.92,13.92,47.59359,-54.27349
2020-12-24 12:54:01+00:00,323.0,5.47,323.0,6.87,13.92,47.59359,-54.27349
2020-12-24 13:04:01+00:00,330.0,5.12,327.0,6.29,13.92,47.59359,-54.27349
2020-12-24 13:14:01+00:00,320.0,3.76,321.0,4.29,14.4,47.59359,-54.27349
2020-12-24 13:24:01+00:00,320.0,4.19,317.0,4.81,14.4,47.59359,-54.27349
2020-12-24 13:34:01+00:00,319.0,3.34,312.0,5.12,14.4,47.59359,-54.27349
2020-12-24 13:44:01+00:00,325.0,2.88,321.0,3.59,14.4,47.59359,-54.27349
2020-12-24 13:54:01+00:00,289.0,1.96,291.0,2.66,14.4,47.59359,-54.27349
2020-12-24 14:04:01+00:00,315.0,2.7,321.0,3.64,14.4,47.59359,-54.27349
2020-12-24 14:14:01+00:00,317.0,2.0,327.0,2.82,13.68,47.59359,-54.27349
2020-12-24 14:24:01+00:00,304.0,3.89,308.0,4.46,13.68,47.59359,-54.27349
2020-12-24 14:34:01+00:00,292.0,2.42,299.0,3.31,13.68,47.59359,-54.27349
2020-12-24 14:44:01+00:00,295.0,2.36,291.0,3.5,13.68,47.59359,-54.27349
2020-12-24 14:54:01+00:00,278.0,2.82,278.0,3.42,13.68,47.59359,-54.27349
2020-12-24 15:04:01+00:00,250.0,3.05,240.0,3.91,13.68,47.59359,-54.27349
2020-12-24 15:14:01+00:00,255.0,3.07,258.0,3.91,13.68,47.59359,-54.27349
2020-12-24 15:24:01+00:00,223.0,2.77,223.0,3.48,13.68,47.59359,-54.27349
2020-12-24 15:34:01+00:00,229.0,2.03,234.0,3.25,13.68,47.59359,-54.27349
2020-12-24 15:44:01+00:00,229.0,3.73,229.0,4.66,13.68,47.59359,-54.27349
2020-12-24 15:54:01+00:00,203.0,2.58,196.0,3.25,13.68,47.59359,-54.27349
2020-12-24 16:04:01+00:00,191.0,3.4,198.0,3.93,13.68,47.59359,-54.27349
2020-12-24 16:14:01+00:00,194.0,2.89,206.0,3.79,13.68,47.59359,-54.27349
2020-12-24 16:24:01+00:00,194.0,3.28,196.0,3.91,13.68,47.59359,-54.27349
2020-12-24 16:34:01+00:00,211.0,3.14,215.0,4.18,13.68,47.59359,-54.27349
2020-12-24 16:44:01+00:00,206.0,3.64,199.0,4.27,13.68,47.59359,-54.27349
2020-12-24 16:54:01+00:00,200.0,3.04,200.0,3.75,13.68,47.59359,-54.27349
2020-12-24 17:04:01+00:00,191.0,3.72,182.0,4.69,13.68,47.59359,-54.27349
2020-12-24 17:14:01+00:00,207.0,4.15,208.0,4.58,13.76,47.59359,-54.27349
2020-12-24 17:24:01+00:00,212.0,4.24,210.0,4.97,13.76,47.59359,-54.27349
2020-12-24 17:34:01+00:00,204.0,4.94,206.0,5.41,13.76,47.59359,-54.27349
2020-12-24 17:44:01+00:00,212.0,4.51,221.0,5.11,13.76,47.59359,-54.27349
2020-12-24 17:54:01+00:00,206.0,4.84,210.0,5.68,13.76,47.59359,-54.27349
2020-12-24 18:04:01+00:00,199.0,5.73,200.0,6.66,13.76,47.59359,-54.27349
2020-12-24 18:14:01+00:00,222.0,5.33,222.0,6.09,14.08,47.59359,-54.27349
2020-12-24 18:24:01+00:00,209.0,6.12,213.0,7.12,14.08,47.59359,-54.27349
2020-12-24 18:34:01+00:00,206.0,7.04,203.0,8.0,14.08,47.59359,-54.27349
2020-12-24 18:44:01+00:00,206.0,7.13,206.0,7.8,14.08,47.59359,-54.27349
2020-12-24 18:54:01+00:00,222.0,6.51,216.0,7.54,14.08,47.59359,-54.27349
2020-12-24 19:04:01+00:00,219.0,7.76,218.0,8.57,14.08,47.59359,-54.27349
2020-12-24 19:14:01+00:00,215.0,7.36,215.0,8.45,13.6,47.59359,-54.27349
2020-12-24 19:24:01+00:00,220.0,5.62,221.0,6.66,13.6,47.59359,-54.27349
2020-12-24 19:34:01+00:00,216.0,6.8,220.0,7.81,13.6,47.59359,-54.27349
2020-12-24 19:44:01+00:00,215.0,6.83,216.0,7.64,13.6,47.59359,-54.27349
2020-12-24 19:54:01+00:00,215.0,6.83,217.0,7.44,13.6,47.59359,-54.27349
2020-12-24 20:04:01+00:00,220.0,7.88,218.0,8.78,13.6,47.59359,-54.27349
2020-12-24 20:14:01+00:00,214.0,7.54,212.0,8.95,12.81,47.59359,-54.27349
2020-12-24 20:24:01+00:00,222.0,7.32,216.0,8.44,12.81,47.59359,-54.27349
2020-12-24 20:34:01+00:00,209.0,8.78,209.0,9.65,12.81,47.59359,-54.27349
2020-12-24 20:44:01+00:00,215.0,7.53,212.0,8.51,12.81,47.59359,-54.27349
2020-12-24 20:54:01+00:00,228.0,7.59,220.0,8.89,12.81,47.59359,-54.27349
2020-12-24 21:04:01+00:00,227.0,8.36,220.0,9.43,12.81,47.59359,-54.27349
2020-12-24 21:14:01+00:00,228.0,7.15,230.0,8.39,12.65,47.59359,-54.27349
2020-12-24 21:24:01+00:00,224.0,7.34,216.0,9.66,12.65,47.59359,-54.27349
2020-12-24 21:34:01+00:00,230.0,6.88,225.0,9.33,12.65,47.59359,-54.27349
2020-12-24 21:44:01+00:00,235.0,6.87,234.0,8.26,12.65,47.59359,-54.27349
2020-12-24 21:54:01+00:00,227.0,7.15,225.0,8.33,12.65,47.59359,-54.27349
2020-12-24 22:04:01+00:00,223.0,8.42,220.0,9.11,12.65,47.59359,-54.27349
2020-12-24 22:14:01+00:00,218.0,8.55,217.0,9.31,12.65,47.59359,-54.27349
2020-12-24 22:24:01+00:00,213.0,8.45,213.0,8.93,12.65,47.59359,-54.27349
2020-12-24 22:34:01+00:00,212.0,8.81,209.0,10.02,12.65,47.59359,-54.27349
2020-12-24 22:44:01+00:00,219.0,8.74,217.0,9.91,12.65,47.59359,-54.27349
2020-12-24 22:54:01+00:00,221.0,8.0,220.0,9.36,12.65,47.59359,-54.27349
2020-12-24 23:04:01+00:00,231.0,6.94,234.0,7.72,12.65,47.59359,-54.27349
2020-12-24 23:14:01+00:00,234.0,7.22,242.0,9.25,12.65,47.59359,-54.27349
2020-12-24 23:24:01+00:00,231.0,7.54,239.0,9.06,12.65,47.59359,-54.27349
2020-12-24 23:34:01+00:00,222.0,7.05,219.0,8.5,12.65,47.59359,-54.27349
2020-12-24 23:44:01+00:00,222.0,8.95,220.0,11.15,12.65,47.59359,-54.27349
2020-12-24 23:54:01+00:00,225.0,9.2,228.0,10.01,12.65,47.59359,-54.27349
